Location: 10033 Water Well
(34.0865°N, 106.8959°W)
Time: 21:52:02
(UTC+00:00)

Cosmos 1302 Rocket - Pass Details

Date: 13 January 2026
Orbit: 752 x 772 km, 74.0° (Epoch: 11 February)

Event Time Altitude Azimuth Distance (km) Brightness Sun altitude
Rises 01:32:24 0° 181° (S) 3,207 7.4 -15.1°
Reaches altitude 10° 01:34:49 10° 175° (S) 2,289 6.6 -15.6°
Maximum altitude 01:39:48 48° 102° (ESE) 998 4.2 -16.5°
Enters shadow 01:42:53 22° 39° (NE) 1,629 5.2 -17.2°
